MST,Max TemperatureF,Mean TemperatureF,Min TemperatureF,Max Dew PointF,MeanDew PointF,Min DewpointF,Max Humidity, Mean Humidity, Min Humidity, Max Sea Level PressureIn, Mean Sea Level PressureIn, Min Sea Level PressureIn, Max VisibilityMiles, Mean VisibilityMiles, Min VisibilityMiles, Max Wind SpeedMPH, Mean Wind SpeedMPH, Max Gust SpeedMPH,PrecipitationIn, CloudCover, Events, WindDirDegrees
2012-2-1,45,33,21,24,20,15,84,61,37,30.20,30.10,29.96,10,10,10,23,5,30,0.00,1,,180
2012-2-2,38,30,22,34,27,19,89,75,61,30.47,30.27,30.09,10,9,2,20,10,23,0.01,8,Snow,307
2012-2-3,41,30,19,21,18,14,84,61,37,30.58,30.53,30.45,10,10,10,12,3,13,0.00,0,,300
2012-2-4,45,29,12,22,16,10,88,61,33,30.59,30.49,30.39,10,10,10,8,1,12,0.00,0,,26
2012-2-5,49,30,11,22,15,10,88,56,23,30.43,30.32,30.14,10,10,10,8,1,9,0.00,0,,22
2012-2-6,35,28,20,25,21,11,96,73,50,30.56,30.39,30.22,10,7,2,26,11,30,0.01,6,Snow,329
2012-2-7,28,25,21,21,19,18,92,84,75,30.56,30.43,30.19,10,10,9,15,6,20,0.00,8,,56
2012-2-8,38,25,11,23,18,12,96,70,44,30.35,30.27,30.18,10,10,10,9,3,12,0.00,4,,277
2012-2-9,46,32,18,32,23,13,96,70,43,30.28,30.22,30.10,10,10,10,36,13,45,T,5,,311
2012-2-10,33,23,12,18,15,7,91,73,54,30.55,30.34,30.21,10,4,0,15,5,17,0.09,8,Fog-Snow,39
2012-2-11,20,9,-2,13,5,-5,92,80,67,30.57,30.43,30.22,10,10,10,8,4,12,0.00,4,,293
2012-2-12,37,21,4,27,16,2,92,76,59,30.17,29.97,29.82,10,10,9,7,1,8,0.00,3,,208
2012-2-13,45,34,22,28,24,21,88,67,45,29.81,29.78,29.75,10,10,10,21,7,25,0.00,8,,303
2012-2-14,40,29,17,30,26,16,96,73,50,29.96,29.76,29.68,10,7,0,21,5,24,0.03,7,Fog-Snow,297
2012-2-15,37,26,14,22,16,12,92,66,40,30.25,30.12,29.98,10,10,10,21,5,25,0.00,2,,246
2012-2-16,45,30,14,19,14,9,81,54,27,30.25,30.14,29.99,10,10,10,10,3,17,0.00,0,,236
2012-2-17,36,28,20,30,26,18,100,77,54,30.24,30.15,30.01,10,9,5,18,7,22,T,7,Snow,300
2012-2-18,49,32,14,26,19,12,88,57,26,30.13,29.93,29.77,10,10,10,22,3,26,0.00,0,,170
2012-2-19,36,30,23,27,22,15,96,72,47,29.93,29.86,29.76,10,10,10,22,6,28,0.00,5,,284
2012-2-20,43,31,18,23,14,8,88,57,25,29.95,29.90,29.83,10,10,10,20,5,25,0.00,3,,297
2012-2-21,47,35,22,33,24,18,92,64,36,29.89,29.73,29.60,10,10,10,31,5,75,T,7,Rain,275
2012-2-22,41,36,31,38,33,22,100,90,79,29.68,29.51,29.33,10,7,0,46,13,53,0.46,8,Fog-Rain-Snow,310
2012-2-23,33,27,20,27,24,18,92,76,59,30.14,29.92,29.70,10,4,0,32,19,40,0.07,6,Fog-Snow,310
2012-2-24,36,25,14,23,19,13,92,74,56,30.27,30.15,29.98,10,9,2,29,10,36,T,4,Snow,273
2012-2-25,52,35,18,30,24,15,92,61,29,29.95,29.58,29.29,10,8,2,38,15,46,T,5,Snow,296
2012-2-26,32,24,16,22,17,13,88,74,59,30.28,30.06,29.68,10,10,10,37,12,47,0.00,6,,326
2012-2-27,30,21,12,19,15,9,96,80,63,30.25,30.09,29.92,10,10,10,10,3,15,0.00,1,,336
2012-2-28,29,24,18,27,22,16,92,88,84,30.00,29.81,29.68,10,3,0,22,8,25,0.27,7,Fog-Snow,337
2012-2-29,42,24,5,24,16,4,92,70,48,29.96,29.78,29.56,10,10,10,36,7,45,0.00,0,,283